Weather History for New Ulm, MN

Change the Weather History Date:

Tuesday, June 11, 2013

  Actual Average Record
Temperature  
Mean Temperature 72 °F -  
Max Temperature 84 °F 81 °F 96 °F (1956)
Min Temperature 59 °F 57 °F 40 °F (1958)
Cooling Degree Days 6    
Growing Degree Days 22 (Base 50)    
Moisture  
Dew Point 64 °F    
Average Humidity 79    
Maximum Humidity 94    
Minimum Humidity 55    
Precipitation  
Precipitation 0.00 in - - ()
Sea Level Pressure  
Sea Level Pressure 29.85 in    
Wind  
Wind Speed 5 mph (East)    
Max Wind Speed 15 mph    
Max Gust Speed 18 mph    
Visibility 8 miles    
Events Rain    
Averages and records for this station are not official NWS values.
T = Trace of Precipitation, MM = Missing Value Source: NWS Daily Summary

Daily Weather History Graph

Daily Weather History Graph

Search for Another Location

Airport:

Trip Planner

Search our weather history database for the weather conditions in past years. The results will help you decide how hot, cold, wet, or windy it might be!

Date:

Astronomy

Jun. 11, 2013 Rise Set
Actual Time 5:33 AM CDT 9:02 PM CDT
Civil Twilight 4:57 AM CDT 9:38 PM CDT
Nautical Twilight 4:09 AM CDT 10:26 PM CDT
Astronomical Twilight 3:08 AM CDT 11:28 PM CDT
Moon 8:22 AM CDT (6/11) 10:59 PM CDT (6/11)
Length of Visible Light 16h 41m
Length of Day
15h 28m
Waxing Crescent, 8% of the Moon is Illuminated
Jun 11
Waxing Crescent
Jun 16
First Quarter
Jun 23
Full
Jun 29
Last Quarter
Jul 8
New

Hourly Weather History & Observations

Time (CDT) Temp. Heat Index Dew Point Humidity Pressure Visibility Wind Dir Wind Speed Gust Speed Precip Events Conditions
12:13 AM 62.6 °F - 60.8 °F 94% 29.85 in 10.0 mi SE 5.8 mph - N/A   Clear
12:33 AM 64.4 °F - 60.8 °F 88% 29.84 in 10.0 mi SSE 5.8 mph - N/A   Clear
12:53 AM 62.6 °F - 60.8 °F 94% 29.85 in 10.0 mi SSE 4.6 mph - N/A   Clear
1:13 AM 62.6 °F - 60.8 °F 94% 29.85 in 7.0 mi SSE 4.6 mph - N/A   Clear
1:33 AM 62.6 °F - 60.8 °F 94% 29.85 in 7.0 mi SSE 4.6 mph - N/A   Clear
1:53 AM 60.8 °F - 57.2 °F 88% 29.84 in 7.0 mi SSE 3.5 mph - N/A   Clear
2:13 AM 60.8 °F - 57.2 °F 88% 29.83 in 7.0 mi SE 4.6 mph - N/A   Clear
2:33 AM 60.8 °F - 57.2 °F 88% 29.83 in 5.0 mi SSE 3.5 mph - N/A   Clear
2:53 AM 60.8 °F - 59.0 °F 94% 29.82 in 5.0 mi SSE 4.6 mph - N/A   Clear
3:13 AM 60.8 °F - 57.2 °F 88% 29.83 in 5.0 mi SSE 3.5 mph - N/A   Clear
3:33 AM 60.8 °F - 57.2 °F 88% 29.84 in 5.0 mi South 4.6 mph - N/A   Clear
3:53 AM 60.8 °F - 57.2 °F 88% 29.83 in 5.0 mi SSE 3.5 mph - N/A   Clear
4:13 AM 59.0 °F - 57.2 °F 94% 29.82 in 4.0 mi SE 4.6 mph - N/A   Clear
4:33 AM 60.8 °F - 57.2 °F 88% 29.82 in 5.0 mi SE 4.6 mph - N/A   Clear
4:53 AM 60.8 °F - 59.0 °F 94% 29.82 in 5.0 mi East 3.5 mph - N/A   Clear
5:13 AM 60.8 °F - 57.2 °F 88% 29.84 in 5.0 mi Calm Calm - N/A   Clear
5:33 AM 60.8 °F - 59.0 °F 94% 29.85 in 5.0 mi ENE 3.5 mph - N/A   Clear
5:52 AM 60.8 °F - 57.2 °F 88% 29.86 in 3.0 mi NE 4.6 mph - N/A   Clear
6:13 AM 60.8 °F - 59.0 °F 94% 29.87 in 3.0 mi NNE 3.5 mph - N/A   Clear
6:33 AM 60.8 °F - 59.0 °F 94% 29.88 in 3.0 mi NE 3.5 mph - N/A   Clear
6:52 AM 60.8 °F - 59.0 °F 94% 29.86 in 3.0 mi East 3.5 mph - N/A   Clear
7:13 AM 62.6 °F - 60.8 °F 94% 29.86 in 3.0 mi ESE 4.6 mph - N/A   Clear
7:33 AM 62.6 °F - 60.8 °F 94% 29.89 in 4.0 mi Calm Calm - N/A   Clear
7:52 AM 64.4 °F - 62.6 °F 94% 29.87 in 4.0 mi SE 3.5 mph - N/A   Clear
8:13 AM 64.4 °F - 62.6 °F 94% 29.88 in 5.0 mi SSE 3.5 mph - N/A   Clear
8:33 AM 64.4 °F - 62.6 °F 94% 29.85 in 5.0 mi SE 8.1 mph - N/A   Clear
8:52 AM 64.4 °F - 62.6 °F 94% 29.86 in 5.0 mi Calm Calm - N/A   Clear
9:13 AM 66.2 °F - 64.4 °F 94% 29.90 in 7.0 mi WNW 4.6 mph - N/A   Clear
9:33 AM 69.8 °F - 66.2 °F 88% 29.90 in 7.0 mi NW 8.1 mph - N/A   Clear
9:52 AM 69.8 °F - 64.4 °F 83% 29.90 in 10.0 mi NW 5.8 mph - N/A   Clear
10:13 AM 69.8 °F - 64.4 °F 83% 29.88 in 10.0 mi Calm Calm - N/A   Clear
10:33 AM 69.8 °F - 66.2 °F 88% 29.85 in 10.0 mi ESE 4.6 mph - N/A   Clear
10:52 AM 71.6 °F - 66.2 °F 83% 29.86 in 10.0 mi SE 3.5 mph - N/A   Clear
11:13 AM 73.4 °F - 66.2 °F 78% 29.88 in 10.0 mi Calm Calm - N/A   Clear
11:33 AM 73.4 °F - 66.2 °F 78% 29.88 in 10.0 mi North 5.8 mph - N/A   Clear
11:53 AM 73.4 °F - 68.0 °F 83% 29.86 in 10.0 mi NNE 6.9 mph - N/A   Clear
12:13 PM 75.2 °F - 66.2 °F 73% 29.84 in 10.0 mi East 8.1 mph - N/A   Clear
12:33 PM 75.2 °F - 68.0 °F 78% 29.83 in 10.0 mi SE 8.1 mph - N/A   Clear
12:53 PM 77.0 °F - 68.0 °F 74% 29.84 in 10.0 mi SSE 8.1 mph - N/A   Clear
1:13 PM 77.0 °F - 66.2 °F 69% 29.88 in 10.0 mi North 4.6 mph - N/A   Clear
1:32 PM 77.0 °F - 66.2 °F 69% 29.87 in 10.0 mi NNE 8.1 mph - N/A Rain Light Rain
1:53 PM 78.8 °F - 66.2 °F 65% 29.88 in 10.0 mi North 3.5 mph - N/A   Clear
2:13 PM 78.8 °F - 68.0 °F 69% 29.86 in 7.0 mi Calm Calm - N/A   Clear
2:32 PM 78.8 °F - 66.2 °F 65% 29.82 in 3.0 mi East 8.1 mph - N/A   Haze
2:53 PM 80.6 °F 82.7 °F 66.2 °F 61% 29.80 in 7.0 mi East 11.5 mph - N/A   Clear
3:13 PM 80.6 °F 82.7 °F 66.2 °F 61% 29.81 in 10.0 mi ESE 9.2 mph - N/A   Clear
3:32 PM 82.4 °F 84.6 °F 66.2 °F 58% 29.81 in 10.0 mi East 5.8 mph - N/A   Clear
3:53 PM 82.4 °F 84.6 °F 66.2 °F 58% 29.82 in 10.0 mi SE 5.8 mph - N/A   Clear
4:13 PM 82.4 °F 84.6 °F 66.2 °F 58% 29.85 in 10.0 mi Calm Calm - N/A   Clear
4:32 PM 84.2 °F 86.6 °F 66.2 °F 55% 29.86 in 10.0 mi NNE 8.1 mph - N/A   Clear
4:53 PM 84.2 °F 86.6 °F 66.2 °F 55% 29.86 in 10.0 mi Calm Calm - N/A   Clear
5:13 PM 84.2 °F 86.6 °F 66.2 °F 55% 29.85 in 10.0 mi Calm Calm - N/A   Clear
5:33 PM 84.2 °F 86.6 °F 66.2 °F 55% 29.85 in 10.0 mi Calm Calm - N/A   Clear
5:53 PM 84.2 °F 86.6 °F 66.2 °F 55% 29.85 in 10.0 mi Calm Calm - N/A   Clear
6:13 PM 84.2 °F 86.6 °F 66.2 °F 55% 29.84 in 10.0 mi NNE 6.9 mph - N/A   Clear
6:33 PM 84.2 °F 86.6 °F 66.2 °F 55% 29.83 in 10.0 mi NNE 9.2 mph - N/A   Clear
6:53 PM 80.6 °F 82.7 °F 66.2 °F 61% 29.82 in 10.0 mi NNE 11.5 mph 16.1 mph N/A   Clear
7:13 PM 80.6 °F 82.7 °F 66.2 °F 61% 29.82 in 10.0 mi NE 9.2 mph 18.4 mph N/A   Clear
7:33 PM 78.8 °F - 66.2 °F 65% 29.81 in 10.0 mi NE 15.0 mph 18.4 mph N/A   Clear
7:53 PM 78.8 °F - 66.2 °F 65% 29.81 in 10.0 mi NE 10.4 mph - N/A   Clear
8:12 PM 78.8 °F - 66.2 °F 65% 29.84 in 10.0 mi NE 9.2 mph - N/A   Clear
8:33 PM 77.0 °F - 66.2 °F 69% 29.85 in 10.0 mi NNE 8.1 mph - N/A   Clear
8:53 PM 75.2 °F - 66.2 °F 73% 29.84 in 10.0 mi NE 10.4 mph - N/A   Clear
9:13 PM 73.4 °F - 66.2 °F 78% 29.83 in 10.0 mi NE 9.2 mph - N/A   Clear
9:33 PM 73.4 °F - 66.2 °F 78% 29.85 in 10.0 mi NE 9.2 mph - N/A   Clear
9:53 PM 73.4 °F - 64.4 °F 73% 29.85 in 10.0 mi NE 9.2 mph - N/A   Clear
10:12 PM 73.4 °F - 64.4 °F 73% 29.86 in 10.0 mi NE 8.1 mph - N/A   Clear
10:33 PM 71.6 °F - 66.2 °F 83% 29.86 in 10.0 mi ENE 5.8 mph - N/A   Clear
10:53 PM 71.6 °F - 66.2 °F 83% 29.86 in 10.0 mi ENE 8.1 mph - N/A   Clear
11:12 PM 71.6 °F - 66.2 °F 83% 29.86 in 10.0 mi ENE 6.9 mph - N/A   Clear
11:33 PM 71.6 °F - 66.2 °F 83% 29.86 in 10.0 mi ENE 4.6 mph - N/A   Clear
11:53 PM 71.6 °F - 66.2 °F 83% 29.87 in 10.0 mi NE 10.4 mph - N/A   Clear